Voltar ao catálogo

CZ-3C DEB

AtivoHEO
NORAD 39347·DEBRIS·🇨🇳 China

Lançado Oct 31, 2010 de Xichang Satellite Launch Center

Loading…

Próximas Passagens (próximas 24 horas)

TLE

AtualizadoSource: Space-Track

Época: Sep 14, 2026, 05:03 UTC

1 39347U 10057M   26257.21055221  .00003776  00000-0  38324-2 0  9994
2 39347  20.2072 216.8465 6592003 172.4252 207.4976  3.12284225124967

Acompanhe CZ-3C DEB em tempo real com AllMySat

Download on the App Store